| time (UTC) | temp F | wind direction | speed MPH | gust MPH | rain 1hr in | rain 24hr in | rain mn in | humidity % | barometer mb |
| 20260508210016 | 93 | 270 | 8.0 | 13.0 | 0.00 | 0.00 | 0.00 | 13 | 1011.2 |
| 20260508205016 | 93 | 293 | 6.0 | 11.0 | 0.00 | 0.00 | 0.00 | 13 | 1011.3 |
| 20260508204036 | 93 | 270 | 7.0 | 13.0 | 0.00 | 0.00 | 0.00 | 13 | 1011.4 |
| 20260508203016 | 92 | 293 | 4.0 | 10.0 | 0.00 | 0.00 | 0.00 | 12 | 1011.4 |
| 20260508202017 | 92 | 270 | 8.0 | 12.0 | 0.00 | 0.00 | 0.00 | 14 | 1011.6 |
| 20260508201018 | 91 | 270 | 5.0 | 10.0 | 0.00 | 0.00 | 0.00 | 14 | 1011.7 |
| 20260508200016 | 91 | 270 | 6.0 | 10.0 | 0.00 | 0.00 | 0.00 | 14 | 1011.9 |
| 20260508195036 | 90 | 293 | 6.0 | 10.0 | 0.00 | 0.00 | 0.00 | 14 | 1011.8 |
| 20260508194016 | 91 | 270 | 5.0 | 11.0 | 0.00 | 0.00 | 0.00 | 14 | 1012.1 |
| 20260508193016 | 90 | 293 | 4.0 | 9.0 | 0.00 | 0.00 | 0.00 | 14 | 1012.1 |
| 20260508192016 | 90 | 270 | 3.0 | 7.0 | 0.00 | 0.00 | 0.00 | 14 | 1012.3 |
| 20260508191015 | 89 | 293 | 3.0 | 11.0 | 0.00 | 0.00 | 0.00 | 15 | 1012.5 |
| 20260508190036 | 89 | 270 | 4.0 | 10.0 | 0.00 | 0.00 | 0.00 | 14 | 1012.7 |
| 20260508185015 | 88 | 270 | 7.0 | 12.0 | 0.00 | 0.00 | 0.00 | 15 | 1012.7 |
| 20260508184018 | 89 | 270 | 5.0 | 9.0 | 0.00 | 0.00 | 0.00 | 14 | 1012.8 |
| 20260508183016 | 88 | 293 | 4.0 | 9.0 | 0.00 | 0.00 | 0.00 | 16 | 1012.9 |
| 20260508182015 | 87 | 248 | 3.0 | 9.0 | 0.00 | 0.00 | 0.00 | 16 | 1013.1 |
| 20260508181036 | 87 | 338 | 3.0 | 9.0 | 0.00 | 0.00 | 0.00 | 16 | 1013.1 |
| 20260508180015 | 88 | 203 | 4.0 | 7.0 | 0.00 | 0.00 | 0.00 | 15 | 1013.2 |
| 20260508175015 | 87 | 248 | 2.0 | 5.0 | 0.00 | 0.00 | 0.00 | 16 | 1013.3 |
| 20260508174016 | 86 | 225 | 3.0 | 6.0 | 0.00 | 0.00 | 0.00 | 16 | 1013.2 |
| 20260508173016 | 85 | 248 | 3.0 | 10.0 | 0.00 | 0.00 | 0.00 | 17 | 1013.3 |
| 20260508172038 | 85 | 248 | 4.0 | 8.0 | 0.00 | 0.00 | 0.00 | 17 | 1013.5 |
| 20260508171016 | 86 | 135 | 2.0 | 7.0 | 0.00 | 0.00 | 0.00 | 17 | 1013.5 |
| 20260508170015 | 86 | 0.0 | 4.0 | 0.00 | 0.00 | 0.00 | 18 | 1013.5 | |
| 20260508165016 | 84 | 248 | 1.0 | 6.0 | 0.00 | 0.00 | 0.00 | 18 | 1013.4 |
| 20260508164017 | 84 | 135 | 4.0 | 5.0 | 0.00 | 0.00 | 0.00 | 18 | 1013.4 |
| 20260508163039 | 83 | 0.0 | 1.0 | 0.00 | 0.00 | 0.00 | 19 | 1013.5 | |
| 20260508162018 | 83 | 203 | 3.0 | 5.0 | 0.00 | 0.00 | 0.00 | 19 | 1013.6 |
| 20260508161018 | 82 | 203 | 3.0 | 7.0 | 0.00 | 0.00 | 0.00 | 20 | 1013.7 |
| 20260508160016 | 82 | 248 | 4.0 | 6.0 | 0.00 | 0.00 | 0.00 | 20 | 1013.7 |
| 20260508155015 | 81 | 135 | 3.0 | 7.0 | 0.00 | 0.00 | 0.00 | 21 | 1013.8 |
| 20260508154036 | 80 | 158 | 3.0 | 7.0 | 0.00 | 0.00 | 0.00 | 21 | 1013.7 |
| 20260508153015 | 80 | 135 | 3.0 | 6.0 | 0.00 | 0.00 | 0.00 | 22 | 1013.7 |
| 20260508152015 | 79 | 158 | 3.0 | 7.0 | 0.00 | 0.00 | 0.00 | 22 | 1013.7 |
| 20260508151016 | 78 | 135 | 3.0 | 8.0 | 0.00 | 0.00 | 0.00 | 23 | 1013.6 |
| 20260508150016 | 77 | 158 | 4.0 | 8.0 | 0.00 | 0.00 | 0.00 | 24 | 1013.5 |
| 20260508145036 | 76 | 158 | 3.0 | 7.0 | 0.00 | 0.00 | 0.00 | 24 | 1013.4 |
| 20260508144015 | 75 | 135 | 4.0 | 8.0 | 0.00 | 0.00 | 0.00 | 25 | 1013.4 |
| 20260508143015 | 74 | 158 | 4.0 | 9.0 | 0.00 | 0.00 | 0.00 | 26 | 1013.1 |
| 20260508142017 | 73 | 135 | 4.0 | 9.0 | 0.00 | 0.00 | 0.00 | 27 | 1013.2 |
| 20260508141020 | 73 | 158 | 3.0 | 8.0 | 0.00 | 0.00 | 0.00 | 27 | 1012.9 |
| 20260508140036 | 72 | 158 | 3.0 | 7.0 | 0.00 | 0.00 | 0.00 | 27 | 1012.7 |
| 20260508135015 | 71 | 158 | 3.0 | 7.0 | 0.00 | 0.00 | 0.00 | 28 | 1012.6 |
| 20260508134015 | 70 | 158 | 2.0 | 5.0 | 0.00 | 0.00 | 0.00 | 29 | 1012.3 |
| 20260508133016 | 69 | 135 | 3.0 | 7.0 | 0.00 | 0.00 | 0.00 | 30 | 1012.2 |
| 20260508132015 | 68 | 135 | 4.0 | 7.0 | 0.00 | 0.00 | 0.00 | 30 | 1012.1 |
| 20260508131036 | 67 | 135 | 5.0 | 7.0 | 0.00 | 0.00 | 0.00 | 31 | 1012.0 |
| 20260508130621 | 0 | 0.0 | 0.0 | 0.00 | 0.00 | 0.00 | |||
| 20260508130015 | 0 | 0.0 | 0.0 | 0.00 | 0.00 | 0.00 | |||
| 20260508125015 | 0 | 0.0 | 0.0 | 0.00 | 0.00 | 0.00 | |||
| 20260508124513 | 0 | 0.0 | 0.0 | 0.00 | 0.00 | 0.00 | |||
| 20260508124138 | 0 | 0.0 | 0.0 | 0.00 | 0.00 | 0.00 | |||
| 20260508123515 | 0 | 0.0 | 0.0 | 0.00 | 0.00 | 0.00 | |||
| 20260508122515 | 0 | 0.0 | 0.0 | 0.00 | 0.00 | 0.00 | |||
| 20260508122032 | 0 | 0.0 | 0.0 | 0.00 | 0.00 | 0.00 | |||
| 20260508121524 | 0 | 0.0 | 0.0 | 0.00 | 0.00 | 0.00 | |||
| 20260508121036 | 0 | 0.0 | 0.0 | 0.00 | 0.00 | 0.00 | |||
| 20260508120015 | 0 | 0.0 | 0.0 | 0.00 | 0.00 | 0.00 | |||
| 20260508115508 | 0 | 0.0 | 0.0 | 0.00 | 0.00 | 0.00 | |||
| 20260508115118 | 0 | 0.0 | 0.0 | 0.00 | 0.00 | 0.00 | |||
| 20260508114516 | 0 | 0.0 | 0.0 | 0.00 | 0.00 | 0.00 | |||
| 20260508113536 | 0 | 0.0 | 0.0 | 0.00 | 0.00 | 0.00 | |||
| 20260508113008 | 0 | 0.0 | 0.0 | 0.00 | 0.00 | 0.00 | |||
| 20260508112617 | 0 | 0.0 | 0.0 | 0.00 | 0.00 | 0.00 | |||
| 20260508112016 | 0 | 0.0 | 0.0 | 0.00 | 0.00 | 0.00 | |||
| 20260508111015 | 0 | 0.0 | 0.0 | 0.00 | 0.00 | 0.00 | |||
| 20260508110535 | 0 | 0.0 | 0.0 | 0.00 | 0.00 | 0.00 | |||
| 20260508110124 | 0 | 0.0 | 0.0 | 0.00 | 0.00 | 0.00 | |||
| 20260508105515 | 0 | 0.0 | 0.0 | 0.00 | 0.00 | 0.00 | |||
| 20260508104517 | 0 | 0.0 | 0.0 | 0.00 | 0.00 | 0.00 | |||
| 20260508104017 | 0 | 0.0 | 0.0 | 0.00 | 0.00 | 0.00 | |||
| 20260508103642 | 0 | 0.0 | 0.0 | 0.00 | 0.00 | 0.00 | |||
| 20260508103015 | 0 | 0.0 | 0.0 | 0.00 | 0.00 | 0.00 | |||
| 20260508102015 | 0 | 0.0 | 0.0 | 0.00 | 0.00 | 0.00 | |||
| 20260508101522 | 68 | 0.0 | 0.0 | 0.00 | 0.00 | 0.00 | 30 | 1011.5 | |
| 20260508101129 | 68 | 135 | 4.0 | 6.0 | 0.00 | 0.00 | 0.00 | 30 | 1011.5 |
| 20260508100035 | 69 | 135 | 2.0 | 5.0 | 0.00 | 0.00 | 0.00 | 30 | 1011.4 |
| 20260508095015 | 69 | 135 | 2.0 | 7.0 | 0.00 | 0.00 | 0.00 | 30 | 1011.3 |
| 20260508094020 | 69 | 135 | 3.0 | 5.0 | 0.00 | 0.00 | 0.00 | 30 | 1011.4 |
| 20260508093017 | 69 | 135 | 3.0 | 7.0 | 0.00 | 0.00 | 0.00 | 30 | 1011.3 |
| 20260508092015 | 70 | 135 | 3.0 | 8.0 | 0.00 | 0.00 | 0.00 | 30 | 1011.3 |
| 20260508091038 | 70 | 135 | 2.0 | 5.0 | 0.00 | 0.00 | 0.00 | 30 | 1011.3 |
| 20260508090017 | 70 | 135 | 3.0 | 6.0 | 0.00 | 0.00 | 0.00 | 29 | 1011.3 |
| 20260508085019 | 70 | 135 | 4.0 | 9.0 | 0.00 | 0.00 | 0.00 | 29 | 1011.3 |
| 20260508084017 | 70 | 135 | 3.0 | 6.0 | 0.00 | 0.00 | 0.00 | 29 | 1011.4 |
| 20260508083017 | 71 | 135 | 3.0 | 7.0 | 0.00 | 0.00 | 0.00 | 29 | 1011.6 |
| 20260508082037 | 71 | 135 | 4.0 | 9.0 | 0.00 | 0.00 | 0.00 | 29 | 1011.5 |
| 20260508081017 | 70 | 135 | 3.0 | 8.0 | 0.00 | 0.00 | 0.00 | 29 | 1011.7 |
| 20260508080017 | 71 | 135 | 4.0 | 6.0 | 0.00 | 0.00 | 0.00 | 29 | 1011.8 |
| 20260508075017 | 70 | 135 | 4.0 | 7.0 | 0.00 | 0.00 | 0.00 | 29 | 1011.8 |
| 20260508074017 | 71 | 135 | 3.0 | 7.0 | 0.00 | 0.00 | 0.00 | 28 | 1012.0 |
| 20260508073037 | 71 | 135 | 4.0 | 7.0 | 0.00 | 0.00 | 0.00 | 28 | 1012.2 |
| 20260508072015 | 71 | 135 | 4.0 | 6.0 | 0.00 | 0.00 | 0.00 | 27 | 1012.3 |
| 20260508071018 | 71 | 135 | 4.0 | 8.0 | 0.00 | 0.00 | 0.00 | 27 | 1012.3 |
| 20260508070112 | 71 | 135 | 3.0 | 6.0 | 0.00 | 0.00 | 0.00 | 26 | 1012.3 |
| 20260508065517 | 71 | 135 | 2.0 | 5.0 | 0.00 | 0.00 | 0.00 | 26 | 1012.3 |
| 20260508064539 | 72 | 135 | 2.0 | 5.0 | 0.00 | 0.00 | 0.00 | 25 | 1012.2 |
| 20260508063516 | 72 | 135 | 3.0 | 6.0 | 0.00 | 0.00 | 0.00 | 24 | 1012.2 |
| 20260508062516 | 72 | 158 | 2.0 | 5.0 | 0.00 | 0.00 | 0.00 | 22 | 1012.1 |
| 20260508061517 | 72 | 135 | 3.0 | 5.0 | 0.00 | 0.00 | 0.00 | 21 | 1012.1 |
| 20260508060516 | 72 | 135 | 3.0 | 6.0 | 0.00 | 0.00 | 0.00 | 19 | 1012.1 |
| 20260508055537 | 73 | 135 | 4.0 | 7.0 | 0.00 | 0.00 | 0.00 | 17 | 1012.3 |
| 20260508054517 | 73 | 135 | 3.0 | 6.0 | 0.00 | 0.00 | 0.00 | 16 | 1012.1 |
| 20260508053516 | 72 | 158 | 1.0 | 4.0 | 0.00 | 0.00 | 0.00 | 15 | 1011.9 |
| 20260508052517 | 72 | 135 | 2.0 | 6.0 | 0.00 | 0.00 | 0.00 | 15 | 1011.8 |
| 20260508051516 | 72 | 0.0 | 1.0 | 0.00 | 0.00 | 0.00 | 15 | 1011.6 | |
| 20260508050537 | 72 | 0.0 | 1.0 | 0.00 | 0.00 | 0.00 | 15 | 1011.5 | |
| 20260508045516 | 73 | 0.0 | 0.0 | 0.00 | 0.00 | 0.00 | 15 | 1011.5 | |
| 20260508044516 | 73 | 0.0 | 1.0 | 0.00 | 0.00 | 0.00 | 15 | 1011.4 | |
| 20260508043517 | 74 | 0.0 | 0.0 | 0.00 | 0.00 | 0.00 | 14 | 1011.3 | |
| 20260508042516 | 74 | 0.0 | 0.0 | 0.00 | 0.00 | 0.00 | 14 | 1011.2 | |
| 20260508041537 | 75 | 0.0 | 0.0 | 0.00 | 0.00 | 0.00 | 14 | 1011.2 | |
| 20260508040516 | 75 | 0.0 | 0.0 | 0.00 | 0.00 | 0.00 | 14 | 1011.1 | |
| 20260508035516 | 76 | 0.0 | 0.0 | 0.00 | 0.00 | 0.00 | 13 | 1010.9 | |
| 20260508034516 | 76 | 0.0 | 1.0 | 0.00 | 0.00 | 0.00 | 13 | 1010.7 | |
| 20260508033516 | 78 | 0.0 | 0.0 | 0.00 | 0.00 | 0.00 | 12 | 1010.6 | |
| 20260508032536 | 79 | 0.0 | 0.0 | 0.00 | 0.00 | 0.00 | 12 | 1010.6 | |
| 20260508031516 | 79 | 0.0 | 0.0 | 0.00 | 0.00 | 0.00 | 12 | 1010.5 | |
| 20260508030516 | 81 | 270 | 2.0 | 4.0 | 0.00 | 0.00 | 0.00 | 11 | 1010.4 |
| 20260508025516 | 82 | 270 | 3.0 | 4.0 | 0.00 | 0.00 | 0.00 | 11 | 1010.3 |
| 20260508024516 | 83 | 270 | 3.0 | 7.0 | 0.00 | 0.00 | 0.00 | 11 | 1010.3 |
| 20260508023537 | 83 | 270 | 4.0 | 6.0 | 0.00 | 0.00 | 0.00 | 10 | 1010.2 |
| 20260508022516 | 84 | 270 | 4.0 | 8.0 | 0.00 | 0.00 | 0.00 | 10 | 1010.1 |
| 20260508021517 | 85 | 270 | 4.0 | 9.0 | 0.00 | 0.00 | 0.00 | 10 | 1010.1 |
| 20260508020516 | 86 | 270 | 5.0 | 9.0 | 0.00 | 0.00 | 0.00 | 9 | 1010.1 |
| 20260508015516 | 87 | 270 | 4.0 | 8.0 | 0.00 | 0.00 | 0.00 | 8 | 1010.0 |
| 20260508014536 | 88 | 270 | 5.0 | 11.0 | 0.00 | 0.00 | 0.00 | 8 | 1009.9 |
| 20260508013517 | 88 | 270 | 7.0 | 12.0 | 0.00 | 0.00 | 0.00 | 8 | 1009.9 |
| 20260508012517 | 89 | 270 | 7.0 | 11.0 | 0.00 | 0.00 | 0.00 | 8 | 1010.0 |
| 20260508011519 | 89 | 293 | 4.0 | 11.0 | 0.00 | 0.00 | 0.00 | 8 | 1010.0 |
| 20260508010516 | 89 | 293 | 4.0 | 10.0 | 0.00 | 0.00 | 0.00 | 8 | 1010.0 |
| 20260508005536 | 90 | 293 | 8.0 | 14.0 | 0.00 | 0.00 | 0.00 | 8 | 1009.9 |
| 20260508004516 | 90 | 270 | 6.0 | 14.0 | 0.00 | 0.00 | 0.00 | 9 | 1009.9 |
| 20260508003516 | 90 | 293 | 7.0 | 14.0 | 0.00 | 0.00 | 0.00 | 9 | 1009.9 |
| 20260508002516 | 90 | 293 | 4.0 | 11.0 | 0.00 | 0.00 | 0.00 | 8 | 1009.9 |
| 20260508001516 | 91 | 293 | 4.0 | 10.0 | 0.00 | 0.00 | 0.00 | 9 | 1009.8 |
| 20260508000537 | 91 | 270 | 8.0 | 14.0 | 0.00 | 0.00 | 0.00 | 9 | 1010.0 |
| 20260507235516 | 91 | 293 | 4.0 | 13.0 | 0.00 | 0.00 | 0.00 | 9 | 1010.0 |
| 20260507234516 | 91 | 293 | 7.0 | 13.0 | 0.00 | 0.00 | 0.00 | 8 | 1010.0 |
| 20260507233516 | 91 | 338 | 4.0 | 10.0 | 0.00 | 0.00 | 0.00 | 8 | 1010.0 |
| 20260507232516 | 91 | 293 | 3.0 | 10.0 | 0.00 | 0.00 | 0.00 | 8 | 1010.0 |
| 20260507231536 | 91 | 293 | 2.0 | 8.0 | 0.00 | 0.00 | 0.00 | 8 | 1010.1 |
| 20260507230517 | 91 | 338 | 5.0 | 12.0 | 0.00 | 0.00 | 0.00 | 9 | 1010.1 |
| 20260507225517 | 90 | 270 | 5.0 | 15.0 | 0.00 | 0.00 | 0.00 | 9 | 1010.0 |
| 20260507224516 | 90 | 293 | 7.0 | 12.0 | 0.00 | 0.00 | 0.00 | 9 | 1010.2 |
| 20260507223517 | 90 | 293 | 9.0 | 19.0 | 0.00 | 0.00 | 0.00 | 9 | 1010.2 |
| 20260507222536 | 91 | 293 | 6.0 | 12.0 | 0.00 | 0.00 | 0.00 | 9 | 1010.5 |
| 20260507221516 | 90 | 270 | 5.0 | 12.0 | 0.00 | 0.00 | 0.00 | 9 | 1010.3 |
| 20260507220516 | 90 | 293 | 5.0 | 12.0 | 0.00 | 0.00 | 0.00 | 9 | 1010.5 |
| 20260507215518 | 91 | 293 | 6.0 | 11.0 | 0.00 | 0.00 | 0.00 | 9 | 1010.7 |
| 20260507214516 | 91 | 293 | 6.0 | 12.0 | 0.00 | 0.00 | 0.00 | 9 | 1010.9 |
| 20260507213536 | 91 | 293 | 5.0 | 11.0 | 0.00 | 0.00 | 0.00 | 10 | 1011.1 |
| 20260507212516 | 90 | 338 | 1.0 | 7.0 | 0.00 | 0.00 | 0.00 | 10 | 1011.2 |
| 20260507211516 | 90 | 293 | 4.0 | 10.0 | 0.00 | 0.00 | 0.00 | 10 | 1011.4 |
| 20260507210517 | 91 | 293 | 5.0 | 12.0 | 0.00 | 0.00 | 0.00 | 10 | 1011.7 |